www.pogodaiklimat.ru

Погода и климат >> Архив погоды >> Гренландия >> Aasiaat Mittarfia


ПОГОДА в Aasiaat Mittarfia

  • Прогноз погоды в Aasiaat Mittarfia
  • Монитор погоды в Aasiaat Mittarfia

АРХИВ ПОГОДЫ в Aasiaat Mittarfia

Время (UTC), дата Ветер
(напр.,м/с)
 
Видим.   Явления Облачность Т
(С)
Тd
(С)
f
(%)
Тe
(С)
Тes
(С)
Комфортность P
(гПа)
Po
(гПа)
Тmin
(С)
Tmax
(С)
R
(мм)
R24
(мм)
S
(см)
22 13.06 С 3 45 км 9/0
[]
+7.4 +3.3 75 +5 +6 1026.7 1023.4
23 13.06 З 2 45 км 9/0
[]
+6.5 +3.8 83 +5 +6 1026.2 1022.9
00 14.06 СЗ 1 40 км 9/0
[]
+6.8 +3.7 81 +7 +7 1025.9 1022.6
01 14.06 СВ 1 45 км 9/0
[]
+7.8 +4.1 77 +8 +8 1025.8 1022.6
02 14.06 Ю 1 50 км 9/0 2000 м
[]
+8.5 +3.5 71 +8 +8 1026.2 1023.0
03 14.06 Ю 1 50 км 10/0 2000 м
[]
+7.6 +3.2 74 +8 +8 1025.9 1022.6
04 14.06 В 2 50 км 9/0 2000 м
[]
+7.9 +3.5 74 +6 +6 1025.9 1022.7
05 14.06 В 3 50 км 10/0 2000 м
[]
+7.7 +3.6 75 +5 +5 1026.1 1022.8
06 14.06 В 4 35 км морось {дождь} 10/10 1500 м
[]
+9.6 +5.0 73 +7 +7 1026.2 1022.9 +6.5 +9.6
07 14.06 В 6 40 км слаб. ливневой дождь {морось} 9/9 1500 м
[]
+9.9 +5.0 72 +7 +7 1026.2 1023.0
08 14.06 В 8 22 км морось {ливн. осадки} 9/9 1500 м
[]
+9.6 +5.6 76 +6 +6 1026.3 1023.1
09 14.06 В 5
{10}
30 км морось {ливн. осадки} 10/10 1440 м
[]
+9.5 +5.7 77 +6 +6 1026.1 1022.9
10 14.06 В 3 20 км слаб. дождь {морось} 9/9 1300 м
[]
+7.2 +6.1 93 +4 +5 1026.4 1023.1
11 14.06 ЮЗ 4 11 км дождь {ливн. осадки, морось} 9/9 360 м
[]
+5.7 +5.2 97 +1 +2 1027.0 1023.7
12 14.06 ЮЗ 3
{10}
30 км в посл. час дождь 10/10 450 м
[]
+5.7 +5.2 97 +3 +3 1027.1 1023.8
13 14.06 ЮЗ 3 30 км {дождь} 10/10 540 м
[]
+5.9 +5.2 95 +2 +2 1027.1 1023.8
14 14.06 З 4 45 км {дождь} 10/10 600 м
[]
+5.8 +4.4 91 +2 +2 1026.9 1023.6
15 14.06 ЮЗ 3 35 км в посл. час осадки {ливн. осадки} 10/10 300 м
[]
+6.0 +4.9 93 +3 +3 1026.8 1023.5
16 14.06 Ю 6 45 км {ливн. осадки, дождь} 10/10 330 м
[]
+6.7 +4.7 87 +2 +2 1026.8 1023.5
17 14.06 ЮЗ 6 10 км ливневой дождь 9/9 360 м
[]
+6.8 +5.4 91 +2 +3 1026.7 1023.4
18 14.06 Ю 8 30 км в посл. час дождь {ливн. осадки} 9/9 210 м
[]
+7.1 +6.2 94 +2 +2 1026.8 1023.5 +4.9 +10.0
19 14.06 Ю 8 30 км {ливн. осадки} 10/10 1170 м
[]
+6.7 +4.5 86 +2 +2 1026.9 1023.6
20 14.06 Ю 7 30 км {ливн. осадки} 9/9 1300 м
[]
+6.5 +3.4 81 +2 +2 1027.3 1024.0
21 14.06 Ю 6 30 км {ливн. осадки} 10/10 1260 м
[]
+5.7 +3.4 85 +1 +1 1027.5 1024.2
22 14.06 ЮЗ 6 26 км {ливн. осадки} 9/9 240 м
[]
+5.3 +3.2 86 0 +1 1027.8 1024.5
23 14.06 ЮЗ 8 29 км {ливн. осадки} 9/9 1320 м
[]
+4.6 +2.7 87 -1 -1 1027.7 1024.4
00 15.06 ЮЗ 3 24 км 9/9 240 м
[]
+4.7 +3.0 89 +1 +1 1028.3 1024.9
01 15.06 ЮЗ 4 24 км 10/10 480 м
[]
+5.0 +2.3 83 +1 +1 1028.4 1025.1
02 15.06 ЮЗ 2 10 км 9/9 330 м
[]
+4.2 +2.5 89 +2 +2 1028.6 1025.3
03 15.06 СЗ 1 24 км 10/10 240 м
[]
+3.4 +2.2 92 +3 +3 1028.3 1025.0
04 15.06 СВ 1 13 км 10/10 180 м
[]
+3.3 +2.4 94 +2 +2 1028.3 1025.0
05 15.06 З 1 20 км 10/10 120 м
[]
+3.2 +2.7 97 +1 +1 1028.1 1024.8
06 15.06 З 2 25 км 10/10 120 м
[]
+2.8 +2.3 97 0 0 1028.4 1025.1 +2.8 +7.3
07 15.06 СЗ 2 300 м туман {дымка} 10/10 90 м
[]
+2.6 +2.1 97 -0 -0 1028.1 1024.8
08 15.06 С 2 300 м туман {дымка} 10/10 60 м
[]
+2.7 +2.2 97 -1 -1 1027.9 1024.5
09 15.06 З 2 200 м туман {дымка} ?/? +2.5 +2.0 96 -0 -0 1027.9 1024.6
10 15.06 СЗ 2 200 м туман {дымка} 10/10 60 м
[]
+2.7 +2.4 98 -0 -0 1027.7 1024.4
11 15.06 СЗ 2 200 м туман {дымка} 10/10 60 м
[]
+3.0 +2.7 98 0 0 1027.6 1024.3
12 15.06 С 3 400 м туман ?/? +3.1 +2.8 98 -1 -1 1027.5 1024.2
13 15.06 С 2 7000 м в посл. час туман 10/10 60 м
[]
+3.4 +3.0 97 0 0 1027.2 1023.9
14 15.06 СВ 3 20 км в посл. час туман 9/9 60 м
[]
+4.0 +3.6 97 0 +1 1026.9 1023.6
15 15.06 С 2 40 км {туман} 10/0
[]
+5.6 +5.2 97 +3 +8 1026.6 1023.3
16 15.06 СВ 2 45 км {туман} 9/0 2000 м
[]
+5.8 +4.7 93 +3 +9 1026.2 1022.9
17 15.06 СВ 3 40 км {туман} 10/10 450 м
[]
+6.0 +3.5 84 +3 +3 1026.0 1022.6
18 15.06 С 2
{8}
40 км 10/0 2000 м
[]
+5.2 +2.7 84 +3 +8 1026.0 1022.7 +2.5 +6.3
19 15.06 С 2 45 км 9/0 2000 м
[]
+4.7 +3.1 89 +2 +7 1025.7 1022.4
20 15.06 С 2 40 км 9/0 2000 м
[]
+4.7 +3.7 93 +2 +5 1025.6 1022.3
21 15.06 С 2 45 км 9/0 2000 м
[]
+4.5 +3.8 95 +2 +4 1025.4 1022.1
22 15.06 С 2 35 км 9/0
[]
+4.3 +3.8 97 +1 +3 1025.3 1022.0
23 15.06 С 2 40 км 9/0
[]
+4.4 +3.9 97 +1 +2 1025.0 1021.7
00 16.06 С 1 45 км 9/0
[]
+4.5 +4.0 97 +3 +3 1024.9 1021.6
01 16.06 СВ 1 45 км 9/0
[]
+4.6 +3.9 95 +3 +3 1024.7 1021.4
02 16.06 штиль 0 45 км 9/0
[]
+4.7 +3.7 93 +4 +4 1024.7 1021.4
03 16.06 ЮЗ 1 50 км 9/0
[]
+5.1 +4.1 93 +4 +4 1024.4 1021.1
04 16.06 штиль 0 50 км 9/0
[]
+4.9 +3.2 89 +4 +4 1024.0 1020.7
05 16.06 штиль 0 45 км 9/0
[]
+3.8 +2.8 93 +3 +3 1023.7 1020.4
06 16.06 С 1 45 км н/о +5.1 +4.1 93 +5 +5 1023.6 1020.3 +3.7 +5.8
07 16.06 СВ 1 45 км н/о +5.5 +4.1 91 +4 +4 1023.5 1020.2
08 16.06 СВ 1 40 км н/о +6.0 +4.6 91 +5 +5 1023.5 1020.2
09 16.06 С 2 30 км 9/0
[]
+6.0 +4.2 88 +4 +5 1023.4 1020.1
10 16.06 С 2 30 км 9/0
[]
+6.3 +4.5 88 +4 +7 1023.1 1019.9
11 16.06 С 2 25 км н/о +6.1 +4.7 91 +4 +4 1023.0 1019.7
12 16.06 С 2-8
{8}
30 км н/о +6.1 +4.7 91 +4 +4 1022.8 1019.5
13 16.06 С 2 30 км н/о +6.3 +4.9 91 +4 +4 1022.4 1019.1
14 16.06 С 2 30 км н/о +6.8 +4.6 86 +5 +5 1022.5 1019.2
15 16.06 С 2 30 км н/о +7.5 +4.6 82 +6 +6 1022.1 1018.8
16 16.06 С 2 30 км н/о +8.0 +3.6 74 +7 +7 1021.6 1018.4
17 16.06 С 3 40 км н/о +8.2 +3.4 72 +6 +6 1021.3 1018.0
18 16.06 С 2 40 км н/о +8.9 +2.9 66 +7 +7 1021.1 1017.8 +5.2 +9.0
19 16.06 С 2 40 км н/о +8.7 +3.2 68 +7 +7 1020.8 1017.5
20 16.06 С 2 45 км н/о +9.2 +3.5 67 +8 +8 1020.3 1017.1
21 16.06 СВ 2 40 км н/о +9.1 +3.6 68 +8 +8 1020.1 1016.8
22 16.06 С 1 40 км н/о +9.1 +4.0 70 +9 +9 1019.8 1016.6
23 16.06 С 2 45 км н/о +9.3 +3.1 65 +8 +8 1019.5 1016.3
00 17.06 С 2 45 км н/о +8.7 +3.2 68 +8 +8 1019.4 1016.1
01 17.06 СВ 2 45 км н/о +9.6 +2.9 63 +8 +8 1019.3 1016.0
02 17.06 СВ 2 45 км 4/0
[]
+8.5 +3.2 69 +7 +7 1019.0 1015.7
03 17.06 СВ 2 45 км 9/0
[]
+7.4 +3.7 77 +5 +5 1018.9 1015.6
04 17.06 С 1 45 км 1/0
[]
+6.9 +4.2 83 +6 +6 1018.6 1015.4
05 17.06 СВ 1 40 км н/о +6.9 +4.4 84 +6 +6 1018.3 1015.1
06 17.06 СВ 1 30 км 9/0
[]
+6.8 +4.6 86 +6 +6 1018.1 1014.9 +6.7 +10.3
07 17.06 СВ 1 35 км н/о +7.5 +5.1 85 +7 +7 1018.3 1015.0
08 17.06 СВ 4 30 км н/о +7.8 +2.8 71 +5 +5 1018.2 1015.0
09 17.06 СВ 4 30 км н/о +8.1 +2.2 66 +5 +5 1018.0 1014.8
10 17.06 СВ 5 27 км н/о +8.5 +2.1 64 +5 +5 1017.8 1014.6
11 17.06 СВ 5 35 км н/о +9.1 +1.4 59 +6 +6 1017.7 1014.4
12 17.06 СВ 3 30 км н/о +9.1 +1.7 60 +7 +7 1017.7 1014.5
13 17.06 СВ 5 35 км н/о +9.6 +2.7 62 +7 +7 1017.7 1014.5
14 17.06 СВ 4 35 км н/о +9.0 +3.0 66 +6 +6 1017.6 1014.3
15 17.06 С 2 27 км н/о +8.3 +4.5 77 +6 +6 1017.5 1014.2
16 17.06 С 3 35 км 4/0
[]
+8.8 +3.5 69 +7 +15 1017.1 1013.8
17 17.06 СВ 3 35 км 3/0
[]
+10.0 +2.3 59 +8 +16 1016.6 1013.4
18 17.06 СВ 3 45 км н/о +11.3 +0.4 47 +10 +10 1016.2 1013.0 +6.7 +11.5
19 17.06 СЗ 3 30 км н/о +9.0 +2.8 65 +7 +7 1016.2 1013.0
20 17.06 С 2 35 км н/о +8.5 +2.8 67 +7 +7 1015.9 1012.6
21 17.06 СВ 2 27 км н/о +8.9 +3.2 67 +8 +8 1015.5 1012.3
22 17.06 С 2 40 км н/о +8.2 +3.0 70 +7 +7 1015.2 1012.0
23 17.06 З 2 35 км 9/0
[]
+7.2 +3.9 80 +6 +6 1015.1 1011.9
00 18.06 З 1 35 км 9/0
[]
+7.4 +3.7 77 +7 +7 1014.8 1011.6
01 18.06 СВ 1 35 км 5/0
[]
+6.3 +3.2 81 +5 +5 1014.5 1011.2
02 18.06 ЮЗ 2 23 км 5/0
[]
+6.7 +4.0 83 +4 +5 1014.5 1011.3
03 18.06 З 1 30 км н/о +5.8 +3.7 86 +5 +5 1014.1 1010.9
04 18.06 ЮЗ 2 30 км н/о +5.3 +3.9 91 +3 +3 1013.9 1010.6
05 18.06 ЮЗ 2 30 км 1/0
[]
+5.0 +3.6 91 +2 +2 1013.8 1010.5
06 18.06 З 1 30 км 9/0
[]
+5.4 +4.3 93 +5 +5 1013.4 1010.1 +4.8 +11.4
07 18.06 В 2 29 км 6/0
[]
+6.5 +5.4 93 +5 +5 1013.3 1010.1
08 18.06 В 2 30 км 9/0
[]
+6.9 +4.0 82 +5 +6 1013.1 1009.9
09 18.06 СВ 2 30 км 3/0
[]
+7.6 +2.6 71 +6 +8 1013.0 1009.8
10 18.06 СЗ 1 27 км 9/0
[]
+7.4 +3.1 74 +8 +10 1012.9 1009.7
11 18.06 З 2 30 км 9/0
[]
+6.9 +3.4 78 +5 +8 1013.0 1009.8
12 18.06 СЗ 4 26 км 9/0
[]
+7.0 +4.1 82 +4 +7 1013.0 1009.8
13 18.06 С 2 35 км 9/0
[]
+7.8 +4.3 79 +6 +11 1013.0 1009.8
14 18.06 С 3 35 км 9/0
[]
+7.7 +3.3 74 +5 +10 1013.1 1009.9
15 18.06 СЗ 3 35 км 9/0
[]
+7.7 +3.6 75 +5 +11 1013.1 1009.8
16 18.06 С 3 35 км 6/0 2000 м
[]
+8.5 +3.5 71 +6 +13 1012.8 1009.6
17 18.06 С 2 35 км 9/0 2000 м
[]
+9.1 +2.7 64 +8 +14 1012.8 1009.5
18 18.06 ЮЗ 5 30 км н/о +8.3 +2.8 68 +5 +5 1012.8 1009.5 +4.7 +9.6
19 18.06 ЮЗ 5 35 км 1/0
[]
+7.8 +3.0 72 +4 +8 1012.8 1009.5
20 18.06 ЮЗ 4 29 км н/о +7.5 +3.6 76 +4 +4 1012.6 1009.4
21 18.06 ЮЗ 4 30 км н/о +7.2 +3.1 75 +4 +4 1012.8 1009.5
22 18.06 ЮЗ 3 30 км н/о +7.6 +2.8 72 +5 +5 1012.6 1009.4
23 18.06 ЮЗ 4 40 км н/о +7.6 +2.8 72 +5 +5 1012.7 1009.5
00 19.06 ЮЗ 4 45 км н/о +6.6 +2.9 77 +3 +3 1012.8 1009.5
01 19.06 ЮЗ 3 40 км н/о +6.8 +3.1 77 +4 +4 1012.8 1009.5
02 19.06 ЮЗ 4 40 км н/о +6.5 +2.8 77 +3 +3 1012.8 1009.6
03 19.06 ЮЗ 3 35 км н/о +6.2 +2.7 78 +3 +3 1012.7 1009.4
04 19.06 ЮЗ 3 40 км 10/0
[]
+6.7 +2.6 75 +4 +4 1012.5 1009.3
05 19.06 ЮЗ 3 40 км 10/0
[]
+7.1 +2.6 73 +5 +5 1012.4 1009.1
06 19.06 Ю 4 45 км 10/0
[]
+7.7 +2.5 70 +5 +5 1012.1 1008.9 +6.2 +8.4
07 19.06 ЮЗ 3 40 км 6/0
[]
+6.8 +2.3 73 +4 +4 1012.3 1009.1
08 19.06 ЮЗ 2 45 км 1/0
[]
+6.0 +2.5 78 +4 +5 1012.3 1009.1
09 19.06 З 3 30 км н/о +6.1 +2.0 75 +3 +3 1012.3 1009.0
10 19.06 З 2 40 км н/о +6.3 +2.4 76 +4 +4 1012.3 1009.0
11 19.06 СЗ 1 35 км н/о +6.0 +2.3 77 +5 +5 1012.4 1009.2
12 19.06 СЗ 1 40 км н/о +6.8 +2.5 74 +6 +6 1012.4 1009.2
13 19.06 СЗ 1 40 км н/о +7.2 +2.4 72 +6 +6 1012.2 1008.9
14 19.06 СЗ 1 35 км н/о +7.8 +2.6 70 +7 +7 1012.1 1008.9
15 19.06 С 1 40 км н/о +8.5 +2.8 67 +8 +8 1012.1 1008.8
16 19.06 С 2 35 км н/о +8.2 +2.1 65 +7 +7 1011.8 1008.6
17 19.06 45 км н/о +7.9 +2.7 70 1011.7 1008.5
18 19.06 С 2 30 км н/о +9.4 +2.2 61 +9 +9 1011.6 1008.4 +5.5 +9.4
19 19.06 СВ 2 45 км н/о +10.3 +1.5 54 +10 +10 1011.4 1008.1
20 19.06 С 2 45 км н/о +10.4 +1.1 52 +10 +10 1011.2 1008.0
21 19.06 С 2 40 км н/о +9.8 +1.8 57 +9 +9 1011.1 1007.9
22 19.06 С 2 29 км 9/0
[]
+9.2 +3.7 68 +8 +10 1011.1 1007.8
23 19.06 С 2 45 км 9/0
[]
+9.0 +3.5 68 +8 +9 1011.1 1007.9
00 20.06 С 2 30 км 9/0
[]
+9.1 +3.1 66 +8 +8 1011.2 1008.0
01 20.06 СВ 2 35 км 9/0
[]
+9.5 +3.0 64 +9 +9 1010.9 1007.7
02 20.06 С 1 35 км 10/0
[]
+9.2 +4.1 70 +10 +10 1011.0 1007.8
03 20.06 СВ 1 50 км 9/0
[]
+9.0 +1.3 58 +10 +10 1010.8 1007.6
04 20.06 С 1 30 км 9/0
[]
+8.5 +1.9 63 +8 +8 1010.6 1007.3
05 20.06 З 1 45 км 9/0
[]
+8.4 +2.5 66 +9 +9 1010.4 1007.2
06 20.06 ЮЗ 3 50 км 9/0
[]
+8.3 +0.9 60 +6 +6 1010.2 1007.0 +7.9 +10.9
07 20.06 ЮЗ 4 50 км 9/0
[]
+8.0 +1.1 62 +5 +5 1010.4 1007.2
08 20.06 ЮЗ 5 50 км 4/0
[]
+7.4 +1.3 65 +4 +5 1010.7 1007.5
09 20.06 ЮЗ 4 40 км 8/0
[]
+8.6 +1.2 60 +6 +7 1010.7 1007.4
10 20.06 ЮЗ 5 40 км 9/0
[]
+8.1 +1.7 64 +5 +6 1010.8 1007.5
11 20.06 ЮЗ 5 30 км 9/0
[]
+6.5 +2.2 74 +2 +4 1010.9 1007.7
12 20.06 ЮЗ 5 40 км 4/0
[]
+5.3 +1.8 78 +1 +4 1011.1 1007.9
13 20.06 ЮЗ 7 30 км н/о +5.0 +1.7 79 -0 -0 1011.1 1007.8
15 20.06 ЮЗ 6 45 км 5/0
[]
+5.2 +1.7 78 0 +3 1010.9 1007.7
17 20.06 З 5 50 км 5/0
[]
+5.9 +1.6 74 +2 +6 1010.6 1007.4
18 20.06 ЮЗ 6 40 км 9/0
[]
+5.5 +2.0 78 +1 +3 1010.7 1007.5 +4.4 +8.6
19 20.06 ЮЗ 5 45 км 9/0
[]
+5.3 +2.2 80 +1 +3 1010.6 1007.3
20 20.06 ЮЗ 6 45 км 9/0
[]
+5.6 +2.7 82 +1 +2 1010.5 1007.2
21 20.06 ЮЗ 5 50 км 9/0 2000 м
[]
+6.1 +3.2 82 +2 +3 1010.3 1007.1
22 20.06 ЮЗ 5 50 км 9/0
[]
+6.2 +3.3 82 +2 +3 1010.2 1007.0

 

Местоположение метеостанции Aasiaat Mittarfia (Гренландия): широта 68.72 долгота -52.80 высота над уровнем моря 27 м.

В архиве по умолчанию представлена погода в Aasiaat Mittarfia за последнюю неделю. Архивные данные за месяц целиком и за предыдущие месяцы, начиная с января 2011 года, Вы можете получить, выбрав интересующий диапазон дат из раскрывающегося списка и нажав кнопку "Ввод!".


*Определитесь, кто Вы:
робот инопланетянин человек

Внимание! Время в таблицах - всемирное. Для получения местного времени необходимо прибавить поправку, которая равна -3 ч.

Смотрите также архив погоды в соседних городах и на ближайших метеорологических станциях:

Погода в Aasiaat (Гренландия) (3 км)
Погода в Ilulissat (Гренландия) (90 км)
Погода в Kitsissut (Гренландия) (115 км)
Погода в Sisimiut Mittarfia (Гренландия) (201 км)
Погода в Kangerlussuaq (Гренландия) (209 км)
Погода Qaarsut Mittarfia (Гренландия) (224 км)
Погода в Nuussuaataa (Гренландия) (229 км)
Погода в Maniitsoq Mittarfia (Гренландия) (367 км)
Погода в Sioralik (Гренландия) (412 км)
Погода на Мысе Дайер (Нунавут, Канада) (429 км)

Пояснения к столбцам:

Ветер - указаны скорость ветра в м/с - средняя за 10 мин, порывы в срок и между сроками (в фигурных скобках) и направление, откуда дует ветер: С - северный, СВ - северо-восточный, В - восточный, ЮВ - юго-восточный, Ю - южный, ЮЗ - юго-западный, З - западный, СЗ - северо-западный.
Видимость - горизонтальная дальность видимости в метрах или километрах. При видимости от 1 до 10 км при отсутствии осадков обычно наблюдается дымка, при ухудшении видимости до 1 км и менее - туман. В сухую погоду видимость может ухудшаться дымом, пылью или мглою.
Явления - указаны атмосферные явления, наблюдавшиеся в срок или в последний час перед сроком; фигурными скобками обозначены явления, наблюдавшиеся между сроками (за 1-3 часа до срока); квадратными скобками обозначены град или гололедные отложения с указанием их диаметра в мм.
Облачность - указаны через наклонную черту общая и нижняя облачность в баллах и высота нижней границы облаков в метрах; квадратными скобками обозначены формы облаков: Ci - перистые, Cs - перисто-слоистые, Cc - перисто-кучевые, Ac - высококучевые, As - высокослоистые, Sc - слоисто-кучевые, Ns - слоисто-дождевые, Cu - кучевые, Cb - кучево-дождевые. Подробнее классификацию облаков см. в Атласе облаков (PDF).
T - Температура воздуха - температура, измеренная на высоте 2 м над землей.
Td - Температура точки росы - температура, при понижении до которой содержащийся в воздухе водяной пар достигнет насыщения.
f - Относительная влажность воздуха - влажноcть воздуха, измеренная на высоте 2 м над землей.
Te - Эффективная температура - температура, которую ощущает одетый по сезону человек в тени. Характеристика душности погоды. При расчете учитывается влияние влажности воздуха и скорости ветра на теплоощущения человека.
Tes - Эффективная температура на солнце - температура, которую ощущает человек, с поправкой на солнечный нагрев. Характеристика знойности погоды. Зависит от высоты солнца над горизонтом, облачности и скорости ветра. Ночью, в пасмурную погоду, а также при ветре 12 м/с и более поправка равна нулю.
P - Атмосферное давление - приведенное к уровню моря атмосферное давление.
Po - Атмосферное давление - измеренное на уровне метеостанции атмосферное давление.
Tmin - Минимальная температура - минимум температуры воздуха на высоте 2 м над землей.
Tmax - Максимальная температура - максимум температуры воздуха на высоте 2 м над землей.
R - Количество осадков - Количество выпавших осадков за период времени, мм. При наведении курсора мыши на число - период времени, за который выпало указанное количество осадков.
R24 - Количество осадков - Количество выпавших осадков за 24 часа, мм.
S - Снежный покров - Высота снежного покрова, см. При наведении курсора мыши на число - состояние снежного покрова и степень покрытия местности в баллах.